Weather past 2 weeks in Bantam, Cocos Islands

Now
82 °F

Scattered clouds.


Feels Like: 87 °F
Forecast: 78 / 83 °F
Wind: 21 mph from Southeast

Location: Cocos Island Airport

Current Time: May 28, 2015 at 1:07:32 PM

Latest Report: May 28, 2015 at 12:30 PM


Visibility: N/A

Pressure: 29.89 "Hg

Humidity: 70%

Dew point: 72 °F

Location of BantamLocation

Historic Weather in Bantam — Graph

°F

Bantam temperature yesterday

Maximum temperature yesterday: 82 °F (at 9:00 AM)
Minimum temperature yesterday: 77 °F (at 1:30 AM)
Average temperature yesterday: 81 °F

Past Weeks' High & Low Weather Summary

 TemperatureHumidityPressure
High86 °F (May 13, 12:00 PM)94% (May 17, 2:00 PM)29.98 "Hg (May 17, 2:00 PM)
Low77 °F (May 25, 12:00 AM)66% (May 28, 9:00 AM)29.80 "Hg (May 17, 2:21 PM)
Average82 °F78%29.90 "Hg
* Reported May 13 11:30 AM — May 28 12:00 Noon, Bantam, Weather by CustomWeather, © 2015

Note: Actual official high and low records may vary slightly from our data, if they occured in-between our weather recording intervals... More about our weather records

Advertising

Bantam weather history for previous 24 hours

 ConditionsComfort  
Time TempWeatherWind HumidityBarometerVisibility
12:00 PM
Thu, May 28
84 °FScattered clouds.20 mph70%29.89 "HgN/A
11:30 AM82 °FPassing clouds.18 mph70%29.89 "HgN/A
11:00 AM82 °FPassing clouds.18 mph70%29.89 "HgN/A
10:30 AM82 °FPassing clouds.20 mph66%29.92 "HgN/A
10:00 AM82 °FPassing clouds.20 mph66%29.92 "HgN/A
9:30 AM81 °FPassing clouds.21 mph66%29.92 "HgN/A
9:00 AM81 °FPassing clouds.22 mph66%29.92 "HgN/A
8:30 AM81 °FPassing clouds.22 mph70%29.92 "HgN/A
8:00 AM81 °FPassing clouds.22 mph70%29.92 "HgN/A
7:30 AM81 °FPassing clouds.21 mph70%29.89 "HgN/A
7:00 AM79 °FPassing clouds.22 mph70%29.89 "HgN/A
6:30 AM79 °FPassing clouds.21 mph70%29.89 "HgN/A
6:00 AM79 °FPassing clouds.20 mph74%29.86 "HgN/A
5:30 AM79 °FPassing clouds.22 mph74%29.86 "HgN/A
5:00 AM79 °FPartly cloudy.20 mph74%29.86 "HgN/A
4:30 AM79 °FPartly cloudy.23 mph74%29.86 "HgN/A
4:00 AM79 °FPartly cloudy.22 mph74%29.86 "HgN/A
3:30 AM79 °FPartly cloudy.21 mph79%29.86 "HgN/A
3:00 AM79 °FPartly cloudy.22 mph79%29.86 "HgN/A
2:30 AM79 °FPartly cloudy.21 mph79%29.86 "HgN/A
2:00 AM81 °FOvercast.23 mph74%29.86 "HgN/A
1:30 AM79 °FSprinkles. Overcast.22 mph79%29.86 "HgN/A
1:00 AM79 °FPartly cloudy.17 mph84%29.89 "Hg4 mi
12:30 AM81 °FSprinkles. Overcast.22 mph74%29.89 "HgN/A
12:00 AM81 °FMostly cloudy.17 mph74%29.89 "HgN/A
11:30 PM
Wed, May 27
81 °FPassing clouds.20 mph74%29.89 "HgN/A
11:00 PM81 °FPartly cloudy.17 mph74%29.92 "HgN/A
10:30 PM81 °FPartly cloudy.18 mph70%29.92 "HgN/A
10:00 PM81 °FPassing clouds.20 mph70%29.92 "HgN/A
9:30 PM81 °FWarm.20 mph70%29.92 "HgN/A
9:00 PM81 °FPassing clouds.18 mph74%29.92 "HgN/A
8:30 PM81 °FPartly cloudy.20 mph74%29.92 "HgN/A
8:00 PM81 °FPassing clouds.21 mph70%29.92 "HgN/A
7:30 PM81 °FPassing clouds.22 mph70%29.89 "HgN/A
6:30 PM81 °FScattered clouds.22 mph70%29.89 "HgN/A
6:00 PM81 °FScattered clouds.21 mph74%29.86 "HgN/A
5:30 PM81 °FMostly cloudy.22 mph74%29.86 "HgN/A
5:00 PM81 °FCloudy.21 mph79%29.86 "HgN/A
4:30 PM79 °FSprinkles. Partly sunny.20 mph84%29.86 "Hg4 mi
4:00 PM82 °FPartly sunny.20 mph74%29.86 "HgN/A
3:30 PM82 °FPartly sunny.21 mph70%29.86 "HgN/A
3:00 PM82 °FScattered clouds.21 mph74%29.86 "HgN/A
2:30 PM82 °FPassing clouds.21 mph74%29.86 "HgN/A
2:00 PM82 °FScattered clouds.21 mph70%29.86 "HgN/A
1:30 PM82 °FPartly sunny.21 mph74%29.86 "HgN/A
1:00 PM82 °FScattered clouds.20 mph74%29.89 "HgN/A
Weather by CustomWeather, © 2015

See weather overviewHow to use our weather pages